Location: Baia de Cri?
(46.1667°N, 22.7167°E)
Time: 23:06:37
(UTC+00:00)

USA 32 - Pass Details

Date: 15 January 2026
Orbit: 774 x 780 km, 85.0° (Epoch: 13 February)

Event Time Altitude Azimuth Distance (km) Brightness Sun altitude
Rises 04:26:54 0° 181° (S) 3,251 7.4 -17.0°
Reaches altitude 10° 04:29:14 10° 180° (S) 2,328 6.7 -16.6°
Maximum altitude 04:34:28 82° 93° (E) 794 4.1 -15.7°
Drops below altitude 10° 04:39:44 10° 7° (N) 2,345 6.4 -14.9°
Sets 04:42:06 0° 7° (N) 3,277 7.2 -14.5°
